AAL2 KCLT-KIAD

Flight info

Callsign AAL2
Flight time N/A
Altitude 39000
Route KILNS5 AUDII DORRN CAVLR6
Aircraft B77W/H-SDE1E2E3FGHIJ2J3J4J5M1RWXY/LB1D1

Departure

Time 2026-05-04 22:14
Airport Charlotte Douglas International Airport (KCLT)

Arrival

Time N/A
Airport Washington Dulles International Airport (KIAD)
Time Latitude Longitude Altitude Speed Heading
2026-05-04 21:56 35.22031 -80.93882 737 ft 0 kts 299°
2026-05-04 22:07 35.22021 -80.93862 736 ft 4 kts 303°
2026-05-04 22:07 35.22007 -80.93834 735 ft 4 kts 303°
2026-05-04 22:08 35.21992 -80.93812 736 ft 4 kts 343°
2026-05-04 22:08 35.21979 -80.93818 734 ft 4 kts 64°
2026-05-04 22:08 35.21967 -80.93847 737 ft 4 kts 57°
2026-05-04 22:08 35.21960 -80.93860 735 ft 1 kts 48°
2026-05-04 22:09 35.21959 -80.93861 735 ft 0 kts 48°
2026-05-04 22:12 35.22018 -80.93803 737 ft 22 kts 22°
2026-05-04 22:12 35.22179 -80.93771 738 ft 22 kts 47°
2026-05-04 22:12 35.22350 -80.93742 738 ft 32 kts 354°
2026-05-04 22:13 35.22486 -80.93728 739 ft 0 kts 53°
2026-05-04 22:13 35.22498 -80.93708 739 ft 8 kts 55°
2026-05-04 22:13 35.22476 -80.93621 740 ft 16 kts 150°
2026-05-04 22:14 35.22138 -80.93593 741 ft 107 kts 175°
2026-05-04 22:14 35.20982 -80.93488 1015 ft 208 kts 177°
2026-05-04 22:14 35.19487 -80.93338 2690 ft 211 kts 177°
2026-05-04 22:14 35.17980 -80.93226 3627 ft 227 kts 179°
2026-05-04 22:15 35.16397 -80.92754 4200 ft 248 kts 154°
2026-05-04 22:15 35.15062 -80.91347 4997 ft 260 kts 135°
2026-05-04 22:15 35.13854 -80.89605 5721 ft 276 kts 133°
2026-05-04 22:15 35.12607 -80.87755 6565 ft 287 kts 131°
2026-05-04 22:16 35.11321 -80.85862 7516 ft 291 kts 132°
2026-05-04 22:16 35.10024 -80.83955 8531 ft 292 kts 130°
2026-05-04 22:16 35.09077 -80.81735 9341 ft 303 kts 105°
2026-05-04 22:16 35.08957 -80.79157 10252 ft 307 kts 83°
2026-05-04 22:17 35.09305 -80.76516 10789 ft 326 kts 76°
2026-05-04 22:17 35.10152 -80.73820 11008 ft 356 kts 61°
2026-05-04 22:17 35.11441 -80.71122 11488 ft 377 kts 55°
2026-05-04 22:17 35.12925 -80.68430 12475 ft 386 kts 53°
2026-05-04 22:18 35.14456 -80.65714 13653 ft 391 kts 53°
2026-05-04 22:18 35.16016 -80.62944 14685 ft 398 kts 53°
2026-05-04 22:18 35.17594 -80.60140 15630 ft 403 kts 53°
2026-05-04 22:18 35.19184 -80.57311 16042 ft 408 kts 53°
2026-05-04 22:19 35.20801 -80.54439 16015 ft 410 kts 53°
2026-05-04 22:19 35.22398 -80.51599 16261 ft 411 kts 52°
2026-05-04 22:19 35.24023 -80.48702 17358 ft 414 kts 53°
2026-05-04 22:19 35.25650 -80.45792 18543 ft 415 kts 52°
2026-05-04 22:20 35.27289 -80.42850 19457 ft 422 kts 52°
2026-05-04 22:20 35.28994 -80.39884 20241 ft 430 kts 51°
2026-05-04 22:20 35.30762 -80.36891 21049 ft 438 kts 50°
2026-05-04 22:20 35.32565 -80.33836 21912 ft 445 kts 51°
2026-05-04 22:21 35.34381 -80.30730 22735 ft 452 kts 51°
2026-05-04 22:21 35.36221 -80.27556 23088 ft 458 kts 51°
2026-05-04 22:21 35.38053 -80.24372 23060 ft 456 kts 51°
2026-05-04 22:21 35.39874 -80.21206 23055 ft 454 kts 51°
2026-05-04 22:22 35.41672 -80.18019 23054 ft 456 kts 54°
2026-05-04 22:22 35.43252 -80.14634 23048 ft 458 kts 60°
2026-05-04 22:22 35.44539 -80.11045 23045 ft 460 kts 66°
2026-05-04 22:22 35.45642 -80.07361 23055 ft 460 kts 68°
2026-05-04 22:23 35.46732 -80.03673 23047 ft 460 kts 68°
2026-05-04 22:23 35.47829 -79.99985 23036 ft 460 kts 67°
2026-05-04 22:23 35.48934 -79.96310 23035 ft 460 kts 67°
2026-05-04 22:23 35.50052 -79.92628 23029 ft 460 kts 67°
2026-05-04 22:24 35.51172 -79.88947 23035 ft 460 kts 67°
2026-05-04 22:24 35.52295 -79.85256 23349 ft 465 kts 67°
2026-05-04 22:24 35.53432 -79.81514 24095 ft 470 kts 67°
2026-05-04 22:24 35.54594 -79.77755 24872 ft 472 kts 66°
2026-05-04 22:25 35.55781 -79.73967 25608 ft 476 kts 66°
2026-05-04 22:25 35.56981 -79.70153 26250 ft 482 kts 66°
2026-05-04 22:25 35.58199 -79.66277 26835 ft 489 kts 66°
2026-05-04 22:25 35.59425 -79.62361 27446 ft 494 kts 66°
2026-05-04 22:26 35.60660 -79.58397 28056 ft 499 kts 66°
2026-05-04 22:26 35.61905 -79.54390 28656 ft 504 kts 66°
2026-05-04 22:26 35.63143 -79.50399 29217 ft 509 kts 66°
2026-05-04 22:26 35.64410 -79.46309 29774 ft 514 kts 66°
2026-05-04 22:27 35.65686 -79.42183 30271 ft 518 kts 66°
2026-05-04 22:27 35.66969 -79.38031 30815 ft 519 kts 66°
2026-05-04 22:27 35.68249 -79.33892 31468 ft 516 kts 66°
2026-05-04 22:27 35.71658 -79.26657 32635 ft 506 kts 47°
2026-05-04 22:28 35.75998 -79.21447 33698 ft 495 kts 32°
2026-05-04 22:28 35.78778 -79.18953 34266 ft 494 kts 31°
2026-05-04 22:28 35.81563 -79.16489 34764 ft 493 kts 30°
2026-05-04 22:28 35.84353 -79.14008 35025 ft 498 kts 31°
2026-05-04 22:29 35.89676 -79.09197 35016 ft 505 kts 31°
2026-05-04 22:29 36.00870 -78.98879 35020 ft 498 kts 31°
2026-05-04 22:30 36.12093 -78.88519 35619 ft 511 kts 31°
2026-05-04 22:30 36.17802 -78.83229 36300 ft 513 kts 31°
2026-05-04 22:30 36.21564 -78.79990 36842 ft 506 kts 25°
2026-05-04 22:30 36.24612 -78.77854 37360 ft 501 kts 22°
2026-05-04 22:31 36.27669 -78.75807 37822 ft 498 kts 22°
2026-05-04 22:31 36.30727 -78.73785 38043 ft 501 kts 22°
2026-05-04 22:31 36.35178 -78.70836 37995 ft 506 kts 22°
2026-05-04 22:32 36.47582 -78.62444 38009 ft 507 kts 23°
2026-05-04 22:32 36.59828 -78.54076 37979 ft 498 kts 23°
2026-05-04 22:33 36.70524 -78.46756 38022 ft 494 kts 22°
2026-05-04 22:33 36.73529 -78.44696 37986 ft 494 kts 22°
2026-05-04 22:33 36.79514 -78.40586 37506 ft 491 kts 22°
2026-05-04 22:34 36.85512 -78.36461 36715 ft 493 kts 22°
2026-05-04 22:34 36.91531 -78.32313 35560 ft 492 kts 22°
2026-05-04 22:34 36.97452 -78.28215 34500 ft 482 kts 22°
2026-05-04 22:34 37.03265 -78.24190 33422 ft 472 kts 22°
2026-05-04 22:35 37.08956 -78.20247 32327 ft 463 kts 22°
2026-05-04 22:35 37.14531 -78.16378 31347 ft 453 kts 23°
2026-05-04 22:35 37.19986 -78.12586 30359 ft 445 kts 24°
2026-05-04 22:35 37.25277 -78.08901 29321 ft 436 kts 24°
2026-05-04 22:36 37.30530 -78.05237 28291 ft 428 kts 24°
2026-05-04 22:36 37.35697 -78.01627 27343 ft 421 kts 24°
2026-05-04 22:36 37.40774 -77.98074 26388 ft 414 kts 24°
2026-05-04 22:36 37.45776 -77.94570 25507 ft 409 kts 24°
2026-05-04 22:37 37.50714 -77.91103 24632 ft 404 kts 24°
2026-05-04 22:37 37.55650 -77.87837 23759 ft 397 kts 18°
2026-05-04 22:37 37.58709 -77.86154 23125 ft 370 kts 17°
2026-05-04 22:37 37.61013 -77.84892 22675 ft 355 kts 17°
2026-05-04 22:38 37.63284 -77.83626 22292 ft 360 kts 17°
2026-05-04 22:38 37.65625 -77.82312 21991 ft 378 kts 18°
2026-05-04 22:38 37.69834 -77.79978 21980 ft 392 kts 18°
2026-05-04 22:38 37.74848 -77.77198 21964 ft 393 kts 18°
2026-05-04 22:39 37.79789 -77.74445 21431 ft 376 kts 18°
2026-05-04 22:39 37.82745 -77.72797 20225 ft 364 kts 18°
2026-05-04 22:39 37.85120 -77.71478 19087 ft 361 kts 18°
2026-05-04 22:39 37.87414 -77.70203 17916 ft 359 kts 18°
2026-05-04 22:40 37.89692 -77.68935 16705 ft 357 kts 18°
2026-05-04 22:40 37.91896 -77.67699 16255 ft 338 kts 18°
2026-05-04 22:40 37.94080 -77.66482 15800 ft 349 kts 18°
2026-05-04 22:40 37.96315 -77.65240 15326 ft 350 kts 18°
2026-05-04 22:41 37.98508 -77.64011 14842 ft 341 kts 18°
2026-05-04 22:41 38.00681 -77.62795 14394 ft 342 kts 18°
2026-05-04 22:41 38.02863 -77.61575 13921 ft 341 kts 18°
2026-05-04 22:41 38.05003 -77.60373 13419 ft 333 kts 18°
2026-05-04 22:42 38.07109 -77.59133 13107 ft 336 kts 20°
2026-05-04 22:42 38.09202 -77.57787 13043 ft 338 kts 21°
2026-05-04 22:42 38.11307 -77.56425 13004 ft 339 kts 21°
2026-05-04 22:42 38.13397 -77.55083 12321 ft 334 kts 21°
2026-05-04 22:43 38.15468 -77.53762 11514 ft 333 kts 21°
2026-05-04 22:43 38.17502 -77.52466 11044 ft 331 kts 21°
2026-05-04 22:43 38.19528 -77.51167 10408 ft 319 kts 21°
2026-05-04 22:43 38.21433 -77.49940 10171 ft 297 kts 21°
2026-05-04 22:44 38.23285 -77.48756 10034 ft 300 kts 21°
2026-05-04 22:44 38.25173 -77.47736 9883 ft 289 kts 12°
2026-05-04 22:44 38.27071 -77.47043 9621 ft 280 kts
2026-05-04 22:44 38.28945 -77.46437 9386 ft 277 kts
2026-05-04 22:45 38.30207 -77.46030 9244 ft 277 kts
2026-05-04 22:45 38.34561 -77.45818 9011 ft 270 kts 347°
2026-05-04 22:45 38.36429 -77.46096 8999 ft 271 kts 348°
2026-05-04 22:46 38.38302 -77.46324 8998 ft 270 kts 349°
2026-05-04 22:46 38.40208 -77.46530 9017 ft 280 kts 350°
2026-05-04 22:46 38.41517 -77.46662 9001 ft 278 kts 350°
2026-05-04 22:46 38.43396 -77.46845 8993 ft 271 kts 351°
2026-05-04 22:47 38.45256 -77.46701 8998 ft 276 kts 14°
2026-05-04 22:47 38.46886 -77.45292 9001 ft 292 kts 45°
2026-05-04 22:47 38.48103 -77.43191 8773 ft 297 kts 55°
2026-05-04 22:47 38.49177 -77.40969 8241 ft 292 kts 55°
2026-05-04 22:48 38.50563 -77.39148 7565 ft 285 kts 27°
2026-05-04 22:48 38.52384 -77.38312 6826 ft 277 kts
2026-05-04 22:48 38.54264 -77.37774 6406 ft 279 kts 11°
2026-05-04 22:48 38.56155 -77.37181 6226 ft 282 kts 11°
2026-05-04 22:49 38.58069 -77.36573 6052 ft 285 kts 11°
2026-05-04 22:49 38.60008 -77.36171 5972 ft 282 kts
2026-05-04 22:49 38.61971 -77.36093 5679 ft 280 kts 357°
2026-05-04 22:49 38.63899 -77.36081 5464 ft 275 kts 357°
2026-05-04 22:50 38.65816 -77.36061 5260 ft 275 kts 357°
2026-05-04 22:50 38.67726 -77.36025 5062 ft 275 kts 357°
2026-05-04 22:50 38.69638 -77.35976 4864 ft 275 kts 358°
2026-05-04 22:50 38.71550 -77.35915 4658 ft 275 kts 358°
2026-05-04 22:51 38.73463 -77.35849 4444 ft 275 kts 358°
2026-05-04 22:51 38.75379 -77.35779 4243 ft 275 kts 358°
2026-05-04 22:51 38.77287 -77.35709 4107 ft 272 kts 358°
2026-05-04 22:51 38.79181 -77.35640 4070 ft 276 kts 358°
2026-05-04 22:52 38.81106 -77.35570 4041 ft 276 kts 359°
2026-05-04 22:52 38.83019 -77.35501 3998 ft 273 kts 358°
2026-05-04 22:52 38.84913 -77.35433 4007 ft 272 kts 358°
2026-05-04 22:52 38.86809 -77.35364 3991 ft 272 kts 358°
2026-05-04 22:53 38.88695 -77.35296 4006 ft 271 kts 358°
2026-05-04 22:53 38.90583 -77.35227 4001 ft 272 kts 358°
2026-05-04 22:53 38.92478 -77.35159 4010 ft 272 kts 359°
2026-05-04 22:53 38.94371 -77.35091 3998 ft 273 kts 358°
2026-05-04 22:54 38.96268 -77.35022 3978 ft 273 kts 359°
2026-05-04 22:54 38.98167 -77.34954 3774 ft 270 kts 358°
2026-05-04 22:54 38.99952 -77.34885 3623 ft 253 kts 359°
2026-05-04 22:54 39.01681 -77.34820 3336 ft 245 kts 358°
2026-05-04 22:55 39.03364 -77.34759 3016 ft 241 kts 358°
2026-05-04 22:55 39.05038 -77.34701 3016 ft 240 kts 358°
2026-05-04 22:55 39.06708 -77.34644 2990 ft 241 kts 358°
2026-05-04 22:55 39.08391 -77.34586 3008 ft 243 kts 358°
2026-05-04 22:56 39.10084 -77.34529 3020 ft 244 kts 359°
2026-05-04 22:56 39.11778 -77.34470 3034 ft 243 kts 358°
2026-05-04 22:56 39.13473 -77.34413 3008 ft 245 kts 359°
2026-05-04 22:56 39.15162 -77.34440 3021 ft 241 kts 345°
2026-05-04 22:57 39.16630 -77.35316 3018 ft 231 kts 311°
2026-05-04 22:57 39.17477 -77.37012 3011 ft 221 kts 279°
2026-05-04 22:57 39.17680 -77.38918 3014 ft 213 kts 269°
2026-05-04 22:57 39.17805 -77.40807 2998 ft 209 kts 267°
2026-05-04 22:58 39.17536 -77.42568 2995 ft 198 kts 234°
2026-05-04 22:58 39.16552 -77.43775 3018 ft 199 kts 211°
2026-05-04 22:58 39.15334 -77.44688 3013 ft 204 kts 210°
2026-05-04 22:58 39.14066 -77.45404 2994 ft 197 kts 192°
2026-05-04 22:59 39.12698 -77.45589 3019 ft 202 kts 188°
2026-05-04 22:59 39.11324 -77.45706 2980 ft 191 kts 185°
2026-05-04 22:59 39.10019 -77.45744 2758 ft 187 kts 184°
2026-05-04 22:59 39.08739 -77.45763 2546 ft 183 kts 184°
2026-05-04 23:00 39.07475 -77.45781 2304 ft 180 kts 184°
2026-05-04 23:00 39.06234 -77.45799 2067 ft 176 kts 184°
2026-05-04 23:00 39.05024 -77.45817 1866 ft 171 kts 184°
2026-05-04 23:00 39.03865 -77.45834 1621 ft 162 kts 183°
2026-05-04 23:01 39.02795 -77.45847 1408 ft 145 kts 183°
2026-05-04 23:01 39.01851 -77.45862 1220 ft 131 kts 181°
2026-05-04 23:01 39.00935 -77.45875 1076 ft 133 kts 183°
2026-05-04 23:01 38.99997 -77.45891 885 ft 137 kts 182°
2026-05-04 23:02 38.99059 -77.45898 638 ft 132 kts 183°
2026-05-04 23:02 38.98170 -77.45908 513 ft 127 kts 183°
2026-05-04 23:02 38.97276 -77.45926 399 ft 130 kts 184°